Regional Weather Roundup
Issued by NWS Sterling, VA

Home | Current Version | Previous Version | Text Only | Print | Product List | Glossary On
Versions: 1 2 3 4 5 6 7 8 9 10 11 12 13 14 15 16 17 18 19 20 21 22 23 24 25 26 27 28 29 30 31 32 33 34 35 36 37 38 39 40 41 42 43 44 45 46 47 48 49 50
450
ASUS41 KLWX 190710
RWRLWX

REGIONAL WEATHER ROUNDUP
NATIONAL WEATHER SERVICE BALTIMORE MD/WASHINGTON DC
200 AM EST SUN NOV 19 2017

Note: "FAIR" indicates few or no clouds below 12,000 feet
with no significant weather and/or obstructions to visibility.
 TC=TEMPERATURE CELSIUS

 * =Non NWS site. Station does not report precipitation (e.g. rain,
    snow, etc.), thunder, or fog.

DCZ001-MDZ009-015-VAZ040>042-051-053>054-190800-
WASHINGTON METRO

CITY           SKY/WX    TMP DP  RH WIND       PRES   REMARKS
WASHINGTON NAT LGT RAIN  60  55  83 S12       29.39S
DULLES         LGT RAIN  56  55  97 S14G20    29.37S
ANDREWS AFB    DRIZZLE   59  54  83 S18       29.37F
FT BELVOIR     LGT RAIN  58  53  81 S7        29.39F
COLLEGE PARK*  CLOUDY    58  53  81 S6        29.38S
LEESBURG*      CLOUDY    57  55  94 S16G23    29.34F
MANASSAS*      LGT RAIN  58  54  86 SW7       29.38F
GAITHERSBURG*  CLOUDY    55  53  93 S10       29.36F

$$

MDZ006>007-011-014-190800-
BALTIMORE METRO

CITY           SKY/WX    TMP DP  RH WIND       PRES   REMARKS
BWI AIRPORT    LGT RAIN  58  56  93 S10G18    29.36F FOG
MARTIN STATE   RAIN      59  55  88 S8        29.38F
FORT MEADE*    CLOUDY    55  54  94 SW9       29.39F

$$

MDZ012-015-019>023-190800-
MARYLAND EASTERN SHORE

CITY           SKY/WX    TMP DP  RH WIND       PRES   REMARKS
OCEAN CITY     MOCLDY    59  55  87 SW22G37   29.49F
SALISBURY      MOCLDY    65  54  67 SW29G39   29.45F
CAMBRIDGE*     CLOUDY    61  55  82 S12G24    29.42F
EASTON*        DRIZZLE   61  55  79 S15       29.43F

$$

MDZ017>025-190800-
SOUTHERN MARYLAND

CITY           SKY/WX    TMP DP  RH WIND       PRES   REMARKS
PATUXENT RIVER NOT AVBL
ST INIGOES     NOT AVBL
LEONARDTOWN*   CLOUDY    64  52  63 SW14G21   29.43F

$$

MDZ003>005-190800-
NORTH CENTRAL MARYLAND

CITY           SKY/WX    TMP DP  RH WIND       PRES   REMARKS
FREDERICK*     CLOUDY    59  52  77 S14       29.32F
HAGERSTOWN APT CLOUDY    57  51  80 S21       29.23F
WESTMINSTER*   RAIN      55  54  94 S17G28    29.31F

$$

MDZ501>502-190800-
WESTERN MARYLAND

CITY           SKY/WX    TMP DP  RH WIND       PRES   REMARKS
OAKLAND*       CLOUDY    43  43 100 W24G44    29.32R
CUMBERLAND*    CLOUDY    41  41 100 CALM      29.31R

$$

VAZ025>031-190800-
SHENANDOAH VALLEY

CITY           SKY/WX    TMP DP  RH WIND       PRES   REMARKS
WINCHESTER*    CLOUDY    57  50  77 S17G28    29.29F
FRONT ROYAL*   MOCLDY    57  52  82 S10G24    29.29F
LURAY*         LGT RAIN  57  52  82 SW13      29.35F
NEW MARKET*    CLOUDY    56  51  82 SW9G17    29.33F
STAUNTON*      LGT RAIN  55  52  88 SW13G21   29.39F
WAYNESBORO*    CLOUDY    57  52  82 S12G23    29.37F

$$

WVZ021-048>050-054>055-190800-
EASTERN WEST VIRGINIA PANHANDLE

CITY           SKY/WX    TMP DP  RH WIND       PRES   REMARKS
MARTINSBURG    CLOUDY    56  49  77 S8        29.27F
PETERSBURG*    LGT RAIN  58  47  66 W18G30    29.35R

$$

VAZ036>039-050-190800-
CENTRAL FOOTHILLS

CITY           SKY/WX    TMP DP  RH WIND       PRES   REMARKS
CHARLOTTESVILL PTCLDY    61  51  70 S22G29    29.37F
CULPEPER*      CLOUDY    60  51  72 S13       29.38F
ORANGE*        CLOUDY    59  52  77 SW17G25   29.40S
GORDONSVILLE*  CLOUDY    61  54  77 SW20G31   29.39F
WARRENTON*     NOT AVBL

$$

VAZ055>057-190800-
NORTH AND CENTRAL PIEDMONT

CITY           SKY/WX    TMP DP  RH WIND       PRES   REMARKS
FREDERICKSBRG* CLOUDY    59  55  88 S7        29.40S
STAFFORD*      CLOUDY    57  56  98 S7        29.44S

$$

NCZ024-NYZ072-PAZ021-071-VAZ022-071-190800-
OTHER REGIONAL OBSERVATIONS

CITY           SKY/WX    TMP DP  RH WIND       PRES   REMARKS
NEW YORK CITY  LGT RAIN  58  51  78 VRB3      29.35F
PHILADELPHIA   LGT RAIN  60  53  77 SW23G32   29.37S
PITTSBURGH     LGT RAIN  38  36  92 W21G31    29.43R WCI  28
ROANOKE        LGT RAIN  57  54  89 VRB5      29.48F
RICHMOND       LGT RAIN  63  54  72 S21G31    29.45F
RALEIGH        CLOUDY    64  52  64 SW20G31   29.55F

$$

ANZ530>537-190800-
MARINE OBSERVATIONS

STATION/POSITION TIME  TEMP    WIND        PRES
                       AIR SEA DIR/SP/G
                 (UTC) (F)     (DEG/KT/KT) (MB)
THOMAS PT LIGHT  0700   60 55  200/ 20/ 21   N/A

$$





USA.gov is the U.S. government's official web portal to all federal, state and local government web resources and services.